Find Starlink 32878

NORAD ID: 62892 Int'l Des: 2025-024 Owner: SPXS Country: US Constellation: starlink operational
LEOCIRCULAR

Live-Position

3D-Globus wird geladen...

Über Starlink 32878

Beschreibung wird geladen...

Nächste Überflüge

Passes for default location (London). Set your location on the main map for personalized predictions.

Höhenverlauf

Loading altitude history...

Zweizeiliger Elementsatz

1 62892U 25024P 26127.00918679 .00002563 00000-0 10267-3 0 9993
2 62892 43.0021 356.1396 0001400 288.4927 71.5772 15.27566250 71182
Epoch: 7. Mai 2026 • Age: 11 hours

Aktueller Status

Höhe 486.2 km
Geschwindigkeit 7.63 km/s
Subsatellitenpunkt 38.37°N, 74.93°E
Startdatum 4. Feb. 2025
Alter 1.2 years
Typ internet

Technische Details

Klassifizierung Payload
Masse 730.00 kg
Trockenmasse 700.00 kg
Gesamtmasse 730.00 kg
Länge 0.30 m
Durchmesser 4.10 m
Spannweite 29.00 m
Form Box + pan
Hersteller SPXS
Bus-Typ Starlink V2M
Phasenstatus In Orbit
Besitzer/Staat SPXS/US

Most Searched